Weather History for K12N - January, 2014

Change the Weather History Date:

Sunday, January 12, 2014

  Actual Average (KFWN) Record (KFWN)
Temperature  
Mean Temperature 38 °F -  
Max Temperature 46 °F 33 °F 65 °F (1975)
Min Temperature 27 °F 12 °F -22 °F (1968)
Degree Days  
Heating Degree Days 27    
Moisture  
Dew Point 28 °F    
Average Humidity 64    
Maximum Humidity 92    
Minimum Humidity 53    
Precipitation  
Precipitation 0.00 in - - ()
Sea Level Pressure  
Sea Level Pressure 29.80 in    
Wind  
Wind Speed 4 mph (NW)    
Max Wind Speed 8 mph    
Max Gust Speed 17 mph    
Averages and records for this station are not official NWS values.
T = Trace of Precipitation, MM = Missing Value Source: NWS Daily Summary

Daily Weather History Graph

Daily Weather History Graph

Search for Another Location

Airport or City:

Trip Planner

Search our weather history database for the weather conditions in past years. The results will help you decide how hot, cold, wet, or windy it might be!

Date:

Astronomy

Jan. 12, 2014 Rise Set
Actual Time 7:22 AM EST 4:52 PM EST
Civil Twilight 6:52 AM EST 5:22 PM EST
Nautical Twilight 6:18 AM EST 5:56 PM EST
Astronomical Twilight 5:45 AM EST 6:29 PM EST
Moon 2:18 PM EST (1/12) 4:19 AM EST (1/12)
Length of Visible Light 10h 30m
Length of Day
9h 29m
Waxing Gibbous, 89% of the Moon is Illuminated
Jan 12
Waxing Gibbous
Jan 15
Full
Jan 24
Last Quarter
Jan 30
New
Feb 6
First Quarter

Hourly Weather History & Observations

Time (EST) Temp. Windchill Dew Point Humidity Pressure Visibility Wind Dir Wind Speed Gust Speed Precip Events Conditions
12:54 AM 46.9 °F - 37.9 °F 71% 29.44 in - SW 5.8 mph - N/A   Unknown
1:54 AM 46.0 °F 41.9 °F 37.0 °F 71% 29.47 in - West 8.1 mph - N/A   Unknown
2:54 AM 45.0 °F 43.5 °F 34.0 °F 65% 29.51 in - Variable 3.5 mph - N/A   Unknown
3:54 AM 43.0 °F - 33.1 °F 68% 29.53 in - Calm Calm - N/A   Unknown
4:54 AM 43.0 °F 38.2 °F 30.0 °F 60% 29.56 in - NNW 8.1 mph 17.3 mph N/A   Unknown
5:54 AM 41.0 °F 38.0 °F 30.0 °F 65% 29.58 in - Variable 4.6 mph - N/A   Unknown
6:54 AM 41.0 °F - 28.9 °F 62% 29.62 in - Calm Calm - N/A   Unknown
7:54 AM 39.9 °F - 28.0 °F 63% 29.68 in - Calm Calm - N/A   Unknown
8:54 AM 39.9 °F 36.7 °F 28.0 °F 63% 29.73 in - Variable 4.6 mph - N/A   Unknown
9:54 AM 39.9 °F 34.5 °F 26.1 °F 58% 29.78 in - NNW 8.1 mph - N/A   Unknown
10:54 AM 41.0 °F - 25.0 °F 53% 29.81 in - North - - N/A   Unknown
11:54 AM 39.9 °F 34.5 °F 26.1 °F 58% 29.81 in - North 8.1 mph - N/A   Unknown
12:54 PM 41.0 °F 38.0 °F 26.1 °F 55% 29.82 in - Variable 4.6 mph - N/A   Unknown
1:54 PM 41.0 °F 37.1 °F 26.1 °F 55% 29.84 in - Variable 5.8 mph - N/A   Unknown
2:54 PM 41.0 °F 39.0 °F 26.1 °F 55% 29.88 in - Variable 3.5 mph - N/A   Unknown
3:54 PM 41.0 °F 36.4 °F 26.1 °F 55% 29.92 in - Variable 6.9 mph - N/A   Unknown
4:54 PM 39.0 °F 35.7 °F 26.1 °F 60% 29.96 in - Variable 4.6 mph - N/A   Unknown
5:54 PM 37.9 °F 34.4 °F 26.1 °F 62% 29.99 in - Variable 4.6 mph - N/A   Unknown
6:54 PM 37.0 °F 33.3 °F 26.1 °F 65% 30.02 in - Variable 4.6 mph - N/A   Unknown
7:54 PM 36.0 °F 33.3 °F 26.1 °F 67% 30.04 in - Variable 3.5 mph - N/A   Unknown
8:54 PM 33.1 °F - 25.0 °F 72% 30.05 in - Calm Calm - N/A   Unknown
9:54 PM 34.0 °F - 25.0 °F 70% 30.08 in - Calm Calm - N/A   Unknown
10:54 PM 30.0 °F - 25.0 °F 82% 30.09 in - Calm Calm - N/A   Unknown
11:54 PM 27.0 °F - 25.0 °F 92% 30.09 in - Calm Calm - N/A   Unknown